Regional Weather Roundup
Issued by NWS

Home | Current Version | Previous Version | Graphics & Text | Print | Product List | Glossary On
Versions: 1 2 3 4 5 6 7 8 9 10 11 12 13 14 15 16 17 18 19 20 21 22 23 24 25 26 27 28 29 30 31 32 33 34 35 36 37 38 39 40 41 42 43 44 45 46 47 48 49 50
000
ASUS43 KFSD 262310
RWRSD

WEATHER ROUNDUP FOR SOUTH DAKOTA
NATIONAL WEATHER SERVICE SIOUX FALLS SD
600 PM CDT FRI AUG 26 2016

NOTE: "FAIR" INDICATES FEW OR NO CLOUDS BELOW 12,000 FEET WITH NO
SIGNIFICANT WEATHER AND/OR OBSTRUCTIONS TO VISIBILITY.


SDZ001>005-009-010-012>017-270000-
NORTHWEST AND NORTH CENTRAL SOUTH DAKOTA

CITY           SKY/WX    TMP DP  RH WIND       PRES   REMARKS
BUFFALO          N/A     67  53  61 E10       29.94F
FAITH            N/A     62  57  83 SE13      30.01F
MOBRIDGE       LGT RAIN  61  54  77 SE12      30.03F
$$

SDZ012>016-024>037-041>051-057-063-072>074-270000-
SOUTHWEST AND SOUTH CENTRAL SOUTH DAKOTA

CITY           SKY/WX    TMP DP  RH WIND       PRES   REMARKS
RAPID CTY ARPT SUNNY     68  54  60 SE15      29.98F
PIERRE         CLOUDY    64  55  72 E12       30.03F
CUSTER         PTSUNNY   63  47  55 S9G17     30.07F
ELLSWORTH AFB  SUNNY     69  55  61 S14       29.97F
PHILIP         MOSUNNY   68  57  68 SE9       30.01F
PINE RIDGE     SUNNY     70  56  61 S12G18    30.01F
WINNER         LGT RAIN  66  59  78 SE14      30.02F
$$

SDZ004>011-016>023-039-040-270000-
NORTHEAST SOUTH DAKOTA

CITY           SKY/WX    TMP DP  RH WIND       PRES   REMARKS
ABERDEEN       CLOUDY    63  57  81 E5        30.08F
WATERTOWN      CLOUDY    70  50  49 CALM      30.11F
BROOKINGS      MOSUNNY   71  52  50 CALM      30.11
SISSETON         N/A     68  60  75 SW5       30.09F
$$

SDZ017-020-022-023-036>040-048>070-270000-
SOUTHEAST SOUTH DAKOTA

CITY           SKY/WX    TMP DP  RH WIND       PRES   REMARKS
SIOUX FALLS    CLOUDY    72  58  61 SE9       30.10F
HURON          LGT RAIN  67  55  65 E8        30.07F
CHAMBERLAIN    CLOUDY    68  58  71 E13G18    30.02F
MITCHELL       CLOUDY    71  56  58 NE6       30.09F
YANKTON        CLOUDY    72  55  56 E9        30.07F
$$

ABBREVIATIONS USED IN REMARKS
   TC - TEMPERATURE IN CELSIUS
  WCI - WIND CHILL INDEX
   HX - HEAT INDEX
  VSB - VISIBILITY





USA.gov is the U.S. government's official web portal to all federal, state and local government web resources and services.